^^
Station Historical Data
 
Daily Summary for August 04, 2015 Units:  Metric    English   Both
« Previous Day
Next Day »
Daily Weekly Monthly Yearly Custom
  Current: High: Low: Average:
Temperature: 19.9 °C 20.4 °C 15.7 °C 17.3 °C
Dew Point: 17.5 °C 17.9 °C 14.6 °C 15.7 °C
Humidity: 86% 95% 78% 91%
Wind Speed: 0.6km/h 3.4km/h 0.0km/h 0.1km/h
Wind Gust: 6.4km/h 11.3km/h - -
WindWNW - - SW
Pressure: 1012.8 hPa 1013.8 hPa 1012.4 hPa -
Precipitation: 0.0 mm      
Historical Graphs
 
 
Tabular Data for August 04, 2015
Time Temperature Dew Point Pressure Wind Wind Speed Wind Gust Humidity Rainfall Rate (Hourly) solar Conditions
00:05 19.9 °C 15.9 °C 1013.8 hPa Calm     78% 0.0 mm 0 W/m2
00:10 19.7 °C 15.9 °C 1013.8 hPa Calm     79% 0.0 mm 0 W/m2
00:20 19.4 °C 15.8 °C 1013.4 hPa Calm     80% 0.0 mm 0 W/m2
00:25 19.2 °C 15.8 °C 1013.4 hPa Calm     81% 0.0 mm 0 W/m2
00:30 19.1 °C 15.8 °C 1013.4 hPa Calm     81% 0.0 mm 0 W/m2
00:35 18.9 °C 15.8 °C 1013.8 hPa Calm     82% 0.0 mm 0 W/m2
00:40 18.8 °C 15.7 °C 1013.8 hPa Calm     82% 0.0 mm 0 W/m2
00:45 18.7 °C 15.8 °C 1013.8 hPa Calm     83% 0.0 mm 0 W/m2
00:50 18.7 °C 15.8 °C 1013.4 hPa Calm     83% 0.0 mm 0 W/m2
00:55 18.6 °C 15.7 °C 1013.8 hPa Calm     83% 0.0 mm 0 W/m2
01:00 18.5 °C 15.7 °C 1013.8 hPa Calm     84% 0.0 mm 0 W/m2
01:05 18.3 °C 15.6 °C 1013.8 hPa Calm     84% 0.0 mm 0 W/m2
01:10 18.3 °C 15.7 °C 1013.8 hPa Calm     85% 0.0 mm 0 W/m2
01:15 18.2 °C 15.8 °C 1013.8 hPa Calm     86% 0.0 mm 0 W/m2
01:20 18.2 °C 16.0 °C 1013.8 hPa Calm     87% 0.0 mm 0 W/m2
01:25 18.1 °C 15.9 °C 1013.4 hPa Calm     87% 0.0 mm 0 W/m2
01:30 17.9 °C 15.9 °C 1013.4 hPa Calm     88% 0.0 mm 0 W/m2
01:35 17.8 °C 15.8 °C 1013.4 hPa Calm     88% 0.0 mm 0 W/m2
01:40 17.8 °C 15.9 °C 1013.4 hPa Calm     89% 0.0 mm 0 W/m2
01:45 17.8 °C 15.9 °C 1013.4 hPa Calm     89% 0.0 mm 0 W/m2
01:50 17.7 °C 16.1 °C 1013.4 hPa Calm     90% 0.0 mm 0 W/m2
01:55 17.7 °C 16.1 °C 1013.4 hPa Calm     90% 0.0 mm 0 W/m2
02:00 17.7 °C 16.1 °C 1013.4 hPa Calm     90% 0.0 mm 0 W/m2
02:05 17.7 °C 16.1 °C 1013.4 hPa Calm     90% 0.0 mm 0 W/m2
02:10 17.6 °C 16.1 °C 1013.4 hPa Calm     91% 0.0 mm 0 W/m2
02:15 17.5 °C 16.0 °C 1013.4 hPa Calm     91% 0.0 mm 0 W/m2
02:20 17.5 °C 16.0 °C 1013.4 hPa Calm     91% 0.0 mm 0 W/m2
02:25 17.4 °C 16.1 °C 1013.4 hPa Calm     92% 0.0 mm 0 W/m2
02:30 17.4 °C 16.1 °C 1013.8 hPa Calm     92% 0.0 mm 0 W/m2
02:35 17.3 °C 16.0 °C 1013.4 hPa Calm     92% 0.0 mm 0 W/m2
02:40 17.3 °C 16.0 °C 1013.4 hPa Calm     92% 0.0 mm 0 W/m2
02:45 17.2 °C 15.9 °C 1013.4 hPa Calm     92% 0.0 mm 0 W/m2
02:50 17.1 °C 15.8 °C 1013.4 hPa Calm     92% 0.0 mm 0 W/m2
02:55 17.0 °C 15.7 °C 1013.4 hPa Calm     92% 0.0 mm 0 W/m2
03:00 16.9 °C 15.8 °C 1013.4 hPa Calm     93% 0.0 mm 0 W/m2
03:05 16.9 °C 15.8 °C 1013.4 hPa Calm     93% 0.0 mm 0 W/m2
03:10 16.8 °C 15.7 °C 1013.4 hPa Calm     93% 0.0 mm 0 W/m2
03:15 16.8 °C 15.7 °C 1013.4 hPa Calm     93% 0.0 mm 0 W/m2
03:25 16.8 °C 15.7 °C 1013.4 hPa Calm     93% 0.0 mm 0 W/m2
03:30 16.7 °C 15.6 °C 1013.4 hPa Calm     93% 0.0 mm 0 W/m2
03:40 16.6 °C 15.4 °C 1013.4 hPa Calm     93% 0.0 mm 0 W/m2
03:45 16.6 °C 15.4 °C 1013.4 hPa Calm     93% 0.0 mm 0 W/m2
03:50 16.6 °C 15.4 °C 1013.4 hPa Calm     93% 0.0 mm 0 W/m2
03:55 16.5 °C 15.4 °C 1013.4 hPa Calm     93% 0.0 mm 0 W/m2
04:00 16.5 °C 15.4 °C 1013.4 hPa Calm     93% 0.0 mm 0 W/m2
04:05 16.4 °C 15.3 °C 1013.4 hPa Calm     93% 0.0 mm 0 W/m2
04:10 16.4 °C 15.3 °C 1013.1 hPa Calm     93% 0.0 mm 0 W/m2
04:15 16.4 °C 15.3 °C 1013.1 hPa Calm     93% 0.0 mm 0 W/m2
04:20 16.4 °C 15.3 °C 1013.1 hPa Calm     93% 0.0 mm 0 W/m2
04:25 16.3 °C 15.2 °C 1013.1 hPa Calm     93% 0.0 mm 0 W/m2
04:30 16.3 °C 15.2 °C 1013.1 hPa Calm     93% 0.0 mm 0 W/m2
04:35 16.3 °C 15.2 °C 1013.1 hPa Calm     93% 0.0 mm 0 W/m2
04:40 16.2 °C 15.1 °C 1013.1 hPa Calm     93% 0.0 mm 0 W/m2
04:45 16.2 °C 15.1 °C 1012.8 hPa Calm     93% 0.0 mm 0 W/m2
04:50 16.2 °C 15.1 °C 1013.1 hPa Calm     93% 0.0 mm 0 W/m2
04:55 16.1 °C 14.9 °C 1012.8 hPa Calm     93% 0.0 mm 0 W/m2
05:00 16.1 °C 14.9 °C 1012.8 hPa Calm     93% 0.0 mm 0 W/m2
05:05 16.1 °C 14.9 °C 1012.8 hPa Calm     93% 0.0 mm 0 W/m2
05:10 16.0 °C 14.9 °C 1012.8 hPa Calm     93% 0.0 mm 0 W/m2
05:15 15.9 °C 14.8 °C 1012.8 hPa Calm     93% 0.0 mm 0 W/m2
05:20 15.9 °C 14.8 °C 1012.8 hPa Calm     93% 0.0 mm 0 W/m2
05:25 15.9 °C 14.8 °C 1012.8 hPa Calm     93% 0.0 mm 0 W/m2
05:30 15.8 °C 14.7 °C 1012.8 hPa Calm     93% 0.0 mm 0 W/m2
05:35 15.8 °C 14.7 °C 1012.8 hPa Calm     93% 0.0 mm 0 W/m2
05:40 15.8 °C 14.7 °C 1012.8 hPa Calm     93% 0.0 mm 0 W/m2
05:45 15.8 °C 14.7 °C 1012.8 hPa Calm     93% 0.0 mm 0 W/m2
05:50 15.8 °C 14.7 °C 1012.8 hPa Calm     93% 0.0 mm 7 W/m2
05:55 15.7 °C 14.6 °C 1012.8 hPa Calm     93% 0.0 mm 9 W/m2
06:00 15.7 °C 14.6 °C 1012.8 hPa Calm     93% 0.0 mm 11 W/m2
06:05 15.7 °C 14.6 °C 1012.8 hPa Calm     93% 0.0 mm 11 W/m2
06:10 15.7 °C 14.6 °C 1012.8 hPa Calm     93% 0.0 mm 9 W/m2
06:15 15.7 °C 14.6 °C 1012.8 hPa Calm     93% 0.0 mm 12 W/m2
06:20 15.7 °C 14.6 °C 1013.1 hPa Calm     93% 0.0 mm 16 W/m2
06:25 15.7 °C 14.6 °C 1013.1 hPa Calm     93% 0.0 mm 21 W/m2
06:30 15.7 °C 14.6 °C 1013.1 hPa Calm     93% 0.0 mm 25 W/m2
06:35 15.7 °C 14.7 °C 1012.8 hPa Calm     94% 0.0 mm 30 W/m2
06:40 15.7 °C 14.7 °C 1012.8 hPa Calm     94% 0.0 mm 35 W/m2
06:45 15.8 °C 14.8 °C 1012.8 hPa Calm     94% 0.0 mm 42 W/m2
06:50 15.8 °C 14.8 °C 1012.8 hPa Calm     94% 0.0 mm 49 W/m2
06:55 15.8 °C 14.8 °C 1012.8 hPa Calm     94% 0.0 mm 53 W/m2
07:00 15.9 °C 14.9 °C 1013.1 hPa Calm     94% 0.0 mm 54 W/m2
07:05 15.9 °C 14.9 °C 1013.1 hPa Calm     94% 0.0 mm 60 W/m2
07:10 16.0 °C 15.1 °C 1013.1 hPa Calm     94% 0.0 mm 137 W/m2
07:15 16.2 °C 15.4 °C 1013.1 hPa Calm     95% 0.0 mm 65 W/m2
07:20 16.3 °C 15.5 °C 1013.1 hPa Calm     95% 0.0 mm 121 W/m2
07:25 16.4 °C 15.6 °C 1013.1 hPa Calm     95% 0.0 mm 105 W/m2
07:30 16.6 °C 15.8 °C 1013.1 hPa Calm     95% 0.0 mm 97 W/m2
07:35 16.7 °C 15.9 °C 1013.1 hPa Calm     95% 0.0 mm 123 W/m2
07:40 16.8 °C 16.0 °C 1012.8 hPa Calm     95% 0.0 mm 206 W/m2
07:45 16.9 °C 16.1 °C 1012.8 hPa Calm     95% 0.0 mm 135 W/m2
07:50 17.2 °C 16.4 °C 1012.8 hPa Calm     95% 0.0 mm 241 W/m2
07:55 17.5 °C 16.7 °C 1012.8 hPa Calm     95% 0.0 mm 156 W/m2
08:00 17.8 °C 16.8 °C 1012.8 hPa Calm     94% 0.0 mm 271 W/m2
08:05 17.8 °C 16.8 °C 1012.8 hPa Calm     94% 0.0 mm 271 W/m2
08:10 18.6 °C 17.3 °C 1012.8 hPa Calm     92% 0.0 mm 244 W/m2
08:15 18.8 °C 17.3 °C 1012.4 hPa Calm     91% 0.0 mm 260 W/m2
08:20 19.1 °C 17.4 °C 1012.8 hPa Calm     90% 0.0 mm 316 W/m2
08:25 19.3 °C 17.4 °C 1012.4 hPa Calm     89% 0.0 mm 288 W/m2
08:30 19.5 °C 17.3 °C 1012.8 hPa Calm     87% 0.0 mm 371 W/m2
08:35 19.7 °C 17.3 °C 1012.8 hPa Calm     86% 0.0 mm 364 W/m2
08:40 20.1 °C 17.7 °C 1012.8 hPa East 0.3 km/h 4.8 km/h 86% 0.0 mm 388 W/m2
08:45 20.3 °C 17.9 °C 1012.8 hPa East 0.2 km/h 1.6 km/h 86% 0.0 mm 429 W/m2
08:50 20.4 °C 17.6 °C 1012.8 hPa NE 1.0 km/h 6.4 km/h 84% 0.0 mm 360 W/m2
08:55 20.4 °C 17.6 °C 1012.8 hPa NNW 1.8 km/h 9.7 km/h 84% 0.0 mm 262 W/m2
09:00 20.2 °C 17.6 °C 1012.8 hPa NW 3.4 km/h 8.0 km/h 85% 0.0 mm 230 W/m2
09:05 20.2 °C 17.8 °C 1012.8 hPa NW 2.4 km/h 9.7 km/h 86% 0.0 mm 209 W/m2
09:10 20.1 °C 17.7 °C 1013.1 hPa WNW 2.3 km/h 11.3 km/h 86% 0.0 mm 218 W/m2
09:15 19.9 °C 17.5 °C 1012.8 hPa WNW 0.6 km/h 6.4 km/h 86% 0.0 mm 220 W/m2
Tägerwilen, Thurgau, Switzerland
Compliments of Weather Underground